Regional Weather Roundup
Issued by NWS

Home | Current Version | Previous Version | Text Only | Print | Product List | Glossary On
Versions: 1 2 3 4 5 6 7 8 9 10 11 12 13 14 15 16 17 18 19 20 21 22 23 24 25 26 27 28
000
ASUS42 KFFC 291003
RWRGA
WEATHER ROUNDUP FOR GEORGIA
NATIONAL WEATHER SERVICE PEACHTREE CITY GA
600 AM EDT SUN MAY 29 2016

NOTE: "FAIR" INDICATES FEW OR NO CLOUDS BELOW 12,000 FEET WITH NO
SIGNIFICANT WEATHER AND/OR OBSTRUCTIONS TO VISIBILITY.

* = USE WITH CAUTION. THE STATIONS MARKED WITH AN ASTERISK MAY NOT
REPORT WEATHER SUCH AS PRECIPITATION, FOG, OR THUNDER AND ARE NOT
QUALITY CONTROLLED BY NWS.

THE REMARK "TC" DENOTES TEMPERATURE READING IN DEGREES CELSIUS.

GAZ001>058-291100-
NORTH GEORGIA

CITY           SKY/WX    TMP DP  RH WIND       PRES   REMARKS
ATLANTA        CLOUDY    68  59  73 NW6       30.11S
ATHENS         MOCLDY    68  65  90 CALM      30.10R
CHAMBLEE       CLOUDY    68  62  81 CALM      30.11S
ROME           PTCLDY    61  57  87 CALM      30.11R
WEST ATLANTA   CLOUDY    66  59  78 CALM      30.11S
GAINESVILLE    CLOUDY    67  63  87 W3        30.13F
CARTERSVILLE   CLOUDY    60  58  92 CALM      30.12S


CITY           SKY/WX    TMP DP  RH WIND       PRES   REMARKS
DALTON*        MOCLDY    63  61  94 CALM      30.11F
MARIETTA       CLOUDY    67  62  84 CALM      30.12R
CANTON*        CLOUDY    63  59  88 CALM      30.14R
BLAIRSVILLE*     N/A    N/A N/A N/A MISG      30.16S
$$

GAZ059>098-102>109-291100-
CENTRAL GEORGIA

CITY           SKY/WX    TMP DP  RH WIND       PRES   REMARKS
AUGUSTA-BUSH   RAIN      66  65  96 N15       30.04S FOG
AUGUSTA-DANIEL RAIN      67  63  87 N10       30.07R FOG
COLUMBUS       CLEAR     68  62  81 CALM      30.09R
MACON          MOCLDY    65  63  93 NW5       30.08R
ROBINS AFB     MOCLDY    66  65  95 NW5       30.07R


CITY           SKY/WX    TMP DP  RH WIND       PRES   REMARKS
LAGRANGE*      CLEAR     61  61 100 CALM      30.11R
SYLVANIA*      HVY RAIN  69  67  94 NW10      30.01S
MILLEDGEVILLE* MOCLDY    70  64  83 CALM      30.09R
$$

GAZ099>101-110>166-291100-
SOUTH GEORGIA

CITY           SKY/WX    TMP DP  RH WIND       PRES   REMARKS
SAVANNAH       LGT RAIN  69  66  90 NW13      29.97S
VALDOSTA       CLEAR     65  64  97 CALM      30.06R
ALMA           CLEAR     65  63  93 W5        30.05R
ST SIMONS      CLEAR     68  65  90 W6        30.01R
FT STEWART     CLOUDY    69  65  88 W6        29.98S
ALBANY         CLEAR     66  63  90 CALM      30.09R
HUNTER AFB     CLOUDY    68  68 100 W9        29.94S
MOODY AFB      CLEAR     65  63  94 NW2       30.05R
BRUNSWICK      CLEAR     68  64  88 W7        30.03R


CITY           SKY/WX    TMP DP  RH WIND       PRES   REMARKS
BAINBRIDGE*    CLEAR     72  70  94 E3        30.05S
MOULTRIE*      CLEAR     68  64  88 CALM      30.07R
VIDALIA*       CLOUDY    68  63  83 N6        30.05R
WAYCROSS*      CLEAR     65  64  97 W5        30.05R
DOUGLAS*       CLEAR     64  64 100 CALM      30.08R
$$




USA.gov is the U.S. government's official web portal to all federal, state and local government web resources and services.